Weather History for Rush City, MN

Change the Weather History Date:

Wednesday, November 21, 2012

  Actual Average (KCBG) Record (KCBG)
Temperature  
Mean Temperature 45 °F -  
Max Temperature 56 °F 35 °F 64 °F (1990)
Min Temperature 34 °F 18 °F -5 °F (2000)
Degree Days  
Heating Degree Days 20    
Moisture  
Dew Point 35 °F    
Average Humidity 70    
Maximum Humidity 87    
Minimum Humidity 48    
Precipitation  
Precipitation 0.00 in - - ()
Sea Level Pressure  
Sea Level Pressure 29.87 in    
Wind  
Wind Speed 7 mph (SSE)    
Max Wind Speed 12 mph    
Max Gust Speed -    
Visibility 10 miles    
Events      
Averages and records for this station are not official NWS values.
T = Trace of Precipitation, MM = Missing Value Source: NWS Daily Summary

Daily Weather History Graph

Daily Weather History Graph

Search for Another Location

Airport:

Trip Planner

Search our weather history database for the weather conditions in past years. The results will help you decide how hot, cold, wet, or windy it might be!

Date:

Astronomy

Nov. 21, 2012 Rise Set
Actual Time 7:20 AM CST 4:34 PM CST
Civil Twilight 6:47 AM CST 5:07 PM CST
Nautical Twilight 6:10 AM CST 5:44 PM CST
Astronomical Twilight 5:35 AM CST 6:19 PM CST
Moon 1:08 PM CST (11/21) 12:20 AM CST (11/21)
Length of Visible Light 10h 20m
Length of Day
9h 14m
First Quarter, 62% of the Moon is Illuminated
Nov 21
First Quarter
Nov 28
Full
Dec 6
Last Quarter
Dec 13
New
Dec 19
First Quarter

Hourly Weather History & Observations

Time (CST) Temp. Windchill Dew Point Humidity Pressure Visibility Wind Dir Wind Speed Gust Speed Precip Events Conditions
12:14 AM 35.8 °F 29.4 °F 32.0 °F 86% 30.02 in 10.0 mi SSE 8.1 mph - N/A   Clear
12:34 AM 35.2 °F 30.3 °F 31.6 °F 87% 30.02 in 10.0 mi South 5.8 mph - N/A   Scattered Clouds
12:55 AM 34.9 °F 29.9 °F 31.5 °F 87% 30.01 in 10.0 mi SSE 5.8 mph - N/A   Scattered Clouds
1:14 AM 35.6 °F 30.7 °F 31.8 °F 86% 30.01 in 10.0 mi SSE 5.8 mph - N/A   Scattered Clouds
1:34 AM 36.3 °F 30.8 °F 32.0 °F 84% 30.00 in 10.0 mi SSE 6.9 mph - N/A   Scattered Clouds
1:55 AM 36.5 °F 30.3 °F 32.0 °F 84% 29.99 in 10.0 mi SSE 8.1 mph - N/A   Scattered Clouds
2:14 AM 37.4 °F 30.8 °F 32.0 °F 81% 29.98 in 10.0 mi SSE 9.2 mph - N/A   Scattered Clouds
2:34 AM 37.4 °F 32.8 °F 32.0 °F 81% 29.97 in 10.0 mi SSE 5.8 mph - N/A   Scattered Clouds
2:55 AM 37.0 °F 32.4 °F 32.0 °F 82% 29.96 in 10.0 mi SSE 5.8 mph - N/A   Scattered Clouds
3:14 AM 36.9 °F 32.2 °F 32.0 °F 83% 29.96 in 10.0 mi South 5.8 mph - N/A   Scattered Clouds
3:34 AM 37.2 °F 32.6 °F 32.0 °F 81% 29.95 in 10.0 mi SSE 5.8 mph - N/A   Scattered Clouds
3:55 AM 37.4 °F 32.1 °F 32.0 °F 81% 29.95 in 10.0 mi SSE 6.9 mph - N/A   Scattered Clouds
4:14 AM 36.9 °F 32.2 °F 32.0 °F 83% 29.94 in 10.0 mi SSE 5.8 mph - N/A   Scattered Clouds
4:34 AM 36.9 °F 31.4 °F 31.6 °F 81% 29.94 in 10.0 mi SSE 6.9 mph - N/A   Scattered Clouds
4:55 AM 37.0 °F 32.4 °F 31.8 °F 81% 29.94 in 10.0 mi SSE 5.8 mph - N/A   Scattered Clouds
5:14 AM 36.9 °F 32.2 °F 31.6 °F 81% 29.94 in 10.0 mi SSE 5.8 mph - N/A   Scattered Clouds
5:34 AM 36.7 °F 32.0 °F 31.5 °F 81% 29.94 in 10.0 mi SSE 5.8 mph - N/A   Scattered Clouds
5:55 AM 36.5 °F 31.8 °F 31.3 °F 81% 29.94 in 10.0 mi SSE 5.8 mph - N/A   Scattered Clouds
6:14 AM 35.8 °F 30.9 °F 31.3 °F 84% 29.93 in 10.0 mi SSE 5.8 mph - N/A   Scattered Clouds
6:34 AM 36.7 °F 32.0 °F 31.8 °F 83% 29.94 in 10.0 mi South 5.8 mph - N/A   Scattered Clouds
6:55 AM 36.5 °F 32.7 °F 31.8 °F 83% 29.94 in 10.0 mi South 4.6 mph - N/A   Scattered Clouds
7:14 AM 36.0 °F 31.1 °F 31.6 °F 84% 29.93 in 10.0 mi SSE 5.8 mph - N/A   Scattered Clouds
7:34 AM 36.1 °F 32.3 °F 31.6 °F 84% 29.94 in 10.0 mi South 4.6 mph - N/A   Scattered Clouds
7:55 AM 37.0 °F 31.6 °F 32.0 °F 82% 29.94 in 10.0 mi South 6.9 mph - N/A   Clear
8:14 AM 37.4 °F 32.8 °F 32.0 °F 81% 29.93 in 10.0 mi South 5.8 mph - N/A   Clear
8:34 AM 38.3 °F 34.8 °F 32.9 °F 81% 29.93 in 10.0 mi South 4.6 mph - N/A   Clear
8:55 AM 40.3 °F 38.2 °F 33.4 °F 77% 29.94 in 10.0 mi SSW 3.5 mph - N/A   Clear
9:14 AM 41.0 °F 38.0 °F 34.3 °F 77% 29.94 in 10.0 mi South 4.6 mph - N/A   Clear
9:34 AM 43.3 °F 39.9 °F 35.4 °F 74% 29.94 in 10.0 mi South 5.8 mph - N/A   Scattered Clouds
9:55 AM 44.8 °F 41.6 °F 36.3 °F 72% 29.94 in 10.0 mi SSW 5.8 mph - N/A   Clear
10:14 AM 46.4 °F 43.5 °F 36.7 °F 69% 29.94 in 10.0 mi SSW 5.8 mph - N/A   Clear
10:35 AM 47.7 °F - 36.9 °F 66% 29.93 in 10.0 mi South 5.8 mph - N/A   Clear
10:54 AM 48.6 °F - 36.5 °F 63% 29.92 in 10.0 mi South 5.8 mph - N/A   Clear
11:14 AM 50.0 °F - 36.7 °F 60% 29.91 in 10.0 mi SSW 6.9 mph - N/A   Clear
11:35 AM 51.4 °F - 37.0 °F 58% 29.91 in 10.0 mi South 5.8 mph - N/A   Clear
11:54 AM 52.7 °F - 36.9 °F 55% 29.90 in 10.0 mi South 8.1 mph - N/A   Clear
12:15 PM 53.4 °F - 37.0 °F 54% 29.89 in 10.0 mi South 5.8 mph - N/A   Clear
12:35 PM 54.7 °F - 37.0 °F 51% 29.89 in 10.0 mi South 5.8 mph - N/A   Clear
12:54 PM 55.2 °F - 37.2 °F 51% 29.89 in 10.0 mi South 6.9 mph - N/A   Clear
1:15 PM 55.6 °F - 37.4 °F 50% 29.88 in 10.0 mi South 4.6 mph - N/A   Clear
1:35 PM 55.8 °F - 37.4 °F 50% 29.86 in 10.0 mi SSE 5.8 mph - N/A   Clear
1:54 PM 56.3 °F - 36.9 °F 48% 29.86 in 10.0 mi South 8.1 mph - N/A   Clear
2:15 PM 56.3 °F - 37.0 °F 48% 29.86 in 10.0 mi South 4.6 mph - N/A   Clear
2:34 PM 55.4 °F - 37.4 °F 51% 29.86 in 10.0 mi SSE 6.9 mph - N/A   Clear
2:54 PM 56.3 °F - 37.4 °F 49% 29.85 in 10.0 mi SSE 6.9 mph - N/A   Clear
2:57 PM 56.3 °F - 37.4 °F 49% 29.85 in 10.0 mi SSE 6.9 mph - N/A   Clear
4:44 PM - - - N/A% 29.83 in - SE 4.6 mph - N/A   Unknown
4:46 PM - - - N/A% 29.83 in - SE 4.6 mph - N/A   Unknown
4:55 PM 49.5 °F - 36.9 °F 62% 29.82 in 10.0 mi SE 4.6 mph - N/A   Unknown
5:14 PM 48.4 °F - 36.5 °F 64% 29.81 in 10.0 mi SE 5.8 mph - N/A   Scattered Clouds
5:34 PM 48.4 °F - 37.0 °F 65% 29.80 in 10.0 mi ESE 5.8 mph - N/A   Scattered Clouds
5:55 PM 47.7 °F - 36.7 °F 66% 29.79 in 10.0 mi ESE 4.6 mph - N/A   Scattered Clouds
6:14 PM 47.3 °F - 36.9 °F 67% 29.78 in 10.0 mi ESE 4.6 mph - N/A   Scattered Clouds
6:34 PM 47.8 °F - 37.4 °F 67% 29.77 in 10.0 mi SE 5.8 mph - N/A   Scattered Clouds
6:55 PM 47.3 °F - 37.4 °F 68% 29.76 in 10.0 mi SE 5.8 mph - N/A   Scattered Clouds
7:14 PM 47.1 °F - 37.4 °F 69% 29.76 in 10.0 mi SE 5.8 mph - N/A   Scattered Clouds
7:34 PM 47.3 °F - 37.4 °F 68% 29.75 in 10.0 mi SE 6.9 mph - N/A   Scattered Clouds
7:55 PM 48.2 °F - 37.8 °F 67% 29.75 in 10.0 mi SSE 6.9 mph - N/A   Scattered Clouds
8:14 PM 48.4 °F - 37.9 °F 67% 29.74 in 10.0 mi SSE 6.9 mph - N/A   Scattered Clouds
8:34 PM 50.0 °F - 38.8 °F 66% 29.74 in 10.0 mi SSE 9.2 mph - N/A   Scattered Clouds
8:55 PM 50.9 °F - 39.2 °F 64% 29.73 in 10.0 mi SSE 8.1 mph - N/A   Scattered Clouds
9:14 PM 51.1 °F - 39.4 °F 64% 29.73 in 10.0 mi SSE 9.2 mph - N/A   Scattered Clouds
9:34 PM 51.1 °F - 39.6 °F 65% 29.72 in 10.0 mi SSE 9.2 mph - N/A   Scattered Clouds
9:55 PM 51.4 °F - 40.1 °F 65% 29.71 in 10.0 mi SSE 10.4 mph - N/A   Scattered Clouds
10:14 PM 52.2 °F - 40.3 °F 64% 29.70 in 10.0 mi SSE 10.4 mph - N/A   Scattered Clouds
10:35 PM 52.7 °F - 40.5 °F 63% 29.69 in 10.0 mi SSE 8.1 mph - N/A   Scattered Clouds
10:55 PM 53.1 °F - 40.6 °F 63% 29.68 in 10.0 mi SSE 11.5 mph - N/A   Scattered Clouds
11:14 PM 53.1 °F - 41.0 °F 64% 29.68 in 10.0 mi SSE 10.4 mph - N/A   Scattered Clouds
11:35 PM 53.6 °F - 41.2 °F 63% 29.67 in 10.0 mi SSE 10.4 mph - N/A   Scattered Clouds
11:55 PM 53.6 °F - 41.2 °F 63% 29.67 in 10.0 mi SSE 10.4 mph - N/A   Scattered Clouds